ONEWEB-0705, 61610

Orbit data source: Space-Track

ONEWEB-0705, 61610 is a payload satellite owned by Eut. One Web (UK) in LEO that was launched on Sun, 20 Oct 2024 UTC via an FALCON 9 launch vehicle from the Air Force Western Test Range (AFWTR). Payload-class satellites include a variety of spacecraft equipped with specific instruments for various scientific and technological missions. These include communications satellites like Starlink; space stations such as the ISS; scientific satellites like the Hubble; Earth observation satellites from companies like Planet Labs, Umbra, and HawkEye 360; GPS; miniature CubeSats for education and research; and military/defense satellites.

Loading next visibility...
Identifier
61610, 2024-188S
Orbit
LEO
Country
Flag of UKUK
Related business
Manufacturer
One Web
Mission
Operational Commercial Communications
Bus & Motor
ARROW, Unknown motor
Mass
148 kg wet, ~140 kg dry
Launch date (UTC)
2024-10-20 (1 year ago)
Launch vehicle
FALCON 9
Launch site
Air Force Western Test Range (AFWTR)
Object type
Payload
Rocket body
Debris
Shape & HBR
Trap Box + 2 Pan, 6.7 m
Radar Cross Section
3.464 m², Large (>1 m²)

Expand to show TLE details & history
Last TLE update: 12 hours ago

TLE from 12 hours ago
0 ONEWEB-0705
1 61610U 24188S   26035.59416340  .00000605  00000-0  16953-2 0  9992
2 61610  87.8764  62.6732 0003018  99.5934 260.5535 13.10374737 58097
Epoch: 2026-02-04T14:15Z
TLE epoch observation values (Epoch: 2026-02-04T14:15:35.717Z)
Latitude
0.00002°
Longitude
74.01588°
Altitude
1,224.974 km
Speed
7.242 km/s
True Right ascension
04h 10m 41s
True Declination
0° 00' 00"
Sunlit
Object was in daylight at epoch
Visualization orbit readout
Latitude
Unknown
Longitude
Unknown
Altitude
Unknown
Speed
Unknown
Apparent Right ascension
Unknown
Apparent Declination
Unknown
Sunlit
N/A
Visualization observer readout
Local Sidereal Time
04:38:50
Azimuth
Unknown
Elevation
Unknown
Doppler factor
Unknown
Orbital elements
Apogee altitude
1,221.122 km
Perigee altitude
1,216.537 km
Semi-major axis
7,596.967 km
Eccentricity
0.0003
Inclination
87.8764°
RAAN
62.6732°
Arg. of periapsis
99.5934°
True anomaly
260.51939°
Mean anomaly
260.5535°
Eccentric anomaly
260.53644°
Mean motion
3.2778 °/min
Orbital period
109.83 mins
BSTAR
0.0016953
Loading maneuver chart data...
Computing Atmospheric mass density...
Loading historical data...
Loading historical data...
Loading historical data...
Loading historical data...
Loading historical data...
Loading historical data...
Loading historical data...

Documentation

Showing up to 5 results
|